Mojave, CA

5:13 PM PST on November 11, 2019 (GMT -0800)
Mojave

Weather History for KMHV - June, 2019

Change the Weather History Date:

Wednesday, June 5, 2019

  Actual Average Record
Temperature  
Mean Temperature 86 °F -  
Max Temperature 98 °F 86 °F 102 °F (1981)
Min Temperature 73 °F 60 °F 47 °F (1988)
Cooling Degree Days 20    
Growing Degree Days 36 (Base 50)    
Moisture  
Dew Point 51 °F    
Average Humidity 33    
Maximum Humidity 47    
Minimum Humidity 13    
Precipitation  
Precipitation 0.00 in - - ()
Sea Level Pressure  
Sea Level Pressure 29.93 in    
Wind  
Wind Speed 16 mph (West)    
Max Wind Speed 26 mph    
Max Gust Speed 34 mph    
Visibility 10 miles    
Events Thunderstorm    
Averages and records for this station are not official NWS values.
T = Trace of Precipitation, MM = Missing Value Source: NWS Daily Summary

Daily Weather History Graph

Daily Weather History Graph

Search for Another Location

Airport or City:

Astronomy

Jun. 05, 2019 Rise Set
Actual Time 5:38 AM PDT 8:03 PM PDT
Civil Twilight 5:09 AM PDT 8:33 PM PDT
Nautical Twilight 4:33 AM PDT 9:09 PM PDT
Astronomical Twilight 3:53 AM PDT 9:49 PM PDT
Moon 7:48 AM PDT (6/5) 10:35 PM PDT (6/5)
Length of Visible Light 15h 23m
Length of Day
14h 25m
Waxing Crescent, 7% of the Moon is Illuminated
Jun 5
Waxing Crescent
Jun 9
First Quarter
Jun 17
Full
Jun 25
Last Quarter
Jul 2
New

Hourly Weather History & Observations

Time (PDT) Temp. Heat Index Dew Point Humidity Pressure Visibility Wind Dir Wind Speed Gust Speed Precip Events Conditions
12:00 AM 78.8 °F - 51.8 °F 39% 29.92 in 10.0 mi NW 25.3 mph - N/A   Clear
12:20 AM 78.8 °F - 50.0 °F 36% 29.92 in 10.0 mi WNW 25.3 mph - N/A   Clear
12:40 AM 78.8 °F - 50.0 °F 36% 29.92 in 10.0 mi WNW 26.5 mph - N/A   Clear
1:00 AM 78.8 °F - 50.0 °F 36% 29.92 in 10.0 mi WNW 26.5 mph 33.4 mph N/A   Clear
1:20 AM 77.0 °F - 51.8 °F 41% 29.92 in 10.0 mi NW 26.5 mph 34.5 mph N/A   Clear
1:40 AM 77.0 °F - 50.0 °F 39% 29.92 in 10.0 mi NW 19.6 mph 29.9 mph N/A   Clear
2:00 AM 77.0 °F - 50.0 °F 39% 29.92 in 10.0 mi WNW 21.9 mph 28.8 mph N/A   Clear
2:20 AM 77.0 °F - 50.0 °F 39% 29.92 in 10.0 mi NW 26.5 mph - N/A   Clear
2:40 AM 77.0 °F - 51.8 °F 41% 29.92 in 10.0 mi WNW 21.9 mph 29.9 mph N/A   Clear
3:00 AM 77.0 °F - 50.0 °F 39% 29.92 in 10.0 mi WNW 20.7 mph 29.9 mph N/A   Clear
3:20 AM 77.0 °F - 51.8 °F 41% 29.92 in 10.0 mi WNW 23.0 mph 31.1 mph N/A   Clear
3:40 AM 77.0 °F - 51.8 °F 41% 29.91 in 10.0 mi WNW 23.0 mph - N/A   Clear
4:00 AM 77.0 °F - 50.0 °F 39% 29.92 in 10.0 mi NW 20.7 mph 28.8 mph N/A   Clear
4:20 AM 77.0 °F - 50.0 °F 39% 29.92 in 10.0 mi NW 19.6 mph 26.5 mph N/A   Clear
4:40 AM 77.0 °F - 50.0 °F 39% 29.92 in 10.0 mi NW 17.3 mph - N/A   Clear
5:00 AM 75.2 °F - 50.0 °F 41% 29.92 in 10.0 mi NNW 15.0 mph - N/A   Clear
5:20 AM 77.0 °F - 51.8 °F 41% 29.93 in 10.0 mi NNW 11.5 mph 17.3 mph N/A   Clear
5:40 AM 75.2 °F - 50.0 °F 41% 29.93 in 10.0 mi North 9.2 mph 15.0 mph N/A   Clear
6:00 AM 75.2 °F - 53.6 °F 47% 29.94 in 10.0 mi NW 5.8 mph - N/A   Clear
6:20 AM 73.4 °F - 48.2 °F 41% 29.95 in 10.0 mi North 6.9 mph - N/A   Clear
6:40 AM 75.2 °F - 53.6 °F 47% 29.95 in 10.0 mi WNW 4.6 mph - N/A   Clear
7:00 AM 78.8 °F - 55.4 °F 44% 29.95 in 10.0 mi Calm Calm - N/A   Clear
7:20 AM 78.8 °F - 55.4 °F 44% 29.96 in 10.0 mi Calm Calm - N/A   Clear
7:40 AM 80.6 °F 80.5 °F 55.4 °F 42% 29.96 in 10.0 mi Calm Calm - N/A   Clear
8:00 AM 80.6 °F 80.5 °F 55.4 °F 42% 29.96 in 10.0 mi Calm Calm - N/A   Clear
8:20 AM 82.4 °F 81.7 °F 55.4 °F 39% 29.97 in 10.0 mi SSW 3.5 mph - N/A   Clear
8:40 AM 84.2 °F 83.0 °F 55.4 °F 37% 29.97 in 10.0 mi Calm Calm - N/A   Clear
9:00 AM 84.2 °F 83.0 °F 55.4 °F 37% 29.97 in 10.0 mi Calm Calm - N/A   Clear
9:20 AM 86.0 °F 84.2 °F 53.6 °F 33% 29.97 in 10.0 mi Calm Calm - N/A   Clear
9:40 AM 87.8 °F 85.7 °F 53.6 °F 31% 29.97 in 10.0 mi Variable 4.6 mph - N/A   Clear
10:00 AM 87.8 °F - 51.8 °F 29% 29.97 in 10.0 mi Variable 4.6 mph - N/A   Clear
10:20 AM 87.8 °F - 50.0 °F 27% 29.97 in 10.0 mi SSE 4.6 mph - N/A   Clear
10:40 AM 89.6 °F - 50.0 °F 26% 29.97 in 10.0 mi Variable 3.5 mph - N/A   Clear
11:00 AM 91.4 °F - 50.0 °F 24% 29.97 in 10.0 mi WSW 3.5 mph - N/A   Clear
11:20 AM 91.4 °F - 50.0 °F 24% 29.97 in 10.0 mi SE 6.9 mph - N/A   Clear
11:40 AM 91.4 °F - 48.2 °F 23% 29.97 in 10.0 mi Variable 3.5 mph - N/A   Clear
12:00 PM 93.2 °F - 46.4 °F 20% 29.96 in 10.0 mi SSE 8.1 mph 13.8 mph N/A   Clear
12:20 PM 93.2 °F - 44.6 °F 19% 29.96 in 10.0 mi Calm Calm - N/A   Clear
12:40 PM 93.2 °F - 44.6 °F 19% 29.95 in 10.0 mi Variable 4.6 mph - N/A   Clear
1:00 PM 95.0 °F - 41.0 °F 15% 29.94 in 10.0 mi SE 11.5 mph - N/A   Clear
1:20 PM 93.2 °F - 39.2 °F 15% 29.94 in 10.0 mi Variable 4.6 mph - N/A   Clear
1:40 PM 95.0 °F - 41.0 °F 15% 29.93 in 10.0 mi South 8.1 mph - N/A   Partly Cloudy
2:00 PM 95.0 °F - 41.0 °F 15% 29.93 in 10.0 mi SSW 8.1 mph 15.0 mph N/A   Partly Cloudy
2:20 PM 96.8 °F - 41.0 °F 15% 29.92 in 10.0 mi SW 8.1 mph - N/A   Clear
2:40 PM 98.6 °F - 39.2 °F 13% 29.91 in 10.0 mi South 11.5 mph 17.3 mph N/A Thunderstorm Clear
3:00 PM 96.8 °F - 37.4 °F 13% 29.91 in 10.0 mi WSW 6.9 mph 16.1 mph N/A   Clear
3:20 PM 98.6 °F - 48.2 °F 18% 29.90 in 10.0 mi West 13.8 mph - N/A   Clear
3:40 PM 96.8 °F - 48.2 °F 19% 29.89 in 10.0 mi West 13.8 mph 21.9 mph N/A   Partly Cloudy
4:00 PM 95.0 °F - 50.0 °F 22% 29.90 in 10.0 mi WSW 20.7 mph 29.9 mph N/A   Scattered Clouds
4:20 PM 93.2 °F - 46.4 °F 20% 29.91 in 10.0 mi SSW 21.9 mph 28.8 mph N/A   Mostly Cloudy
4:40 PM 93.2 °F - 46.4 °F 20% 29.90 in 10.0 mi SW 15.0 mph 21.9 mph N/A   Mostly Cloudy
5:00 PM 95.0 °F - 46.4 °F 19% 29.90 in 10.0 mi SSW 10.4 mph 25.3 mph N/A   Partly Cloudy
5:20 PM 95.0 °F 93.0 °F 55.4 °F 26% 29.90 in 10.0 mi WNW 17.3 mph - N/A   Unknown
5:40 PM 95.0 °F 92.7 °F 53.6 °F 25% 29.90 in 10.0 mi WNW 20.7 mph - N/A   Clear
6:00 PM - - - N/A% 29.90 in - WNW 18.4 mph - N/A   Unknown
6:20 PM 91.4 °F 89.1 °F 53.6 °F 28% 29.90 in 10.0 mi West 17.3 mph 24.2 mph N/A   Unknown
6:40 PM 87.8 °F 85.7 °F 53.6 °F 31% 29.89 in 10.0 mi WNW 18.4 mph - N/A   Clear
7:00 PM 87.8 °F 86.1 °F 55.4 °F 33% 29.90 in 10.0 mi WNW 15.0 mph 23.0 mph N/A   Clear
7:20 PM 86.0 °F 84.5 °F 55.4 °F 35% 29.90 in 10.0 mi West 17.3 mph - N/A   Clear
7:40 PM 86.0 °F 84.5 °F 55.4 °F 35% 29.90 in 10.0 mi West 18.4 mph - N/A   Clear
8:00 PM 84.2 °F 83.0 °F 55.4 °F 37% 29.89 in 10.0 mi West 21.9 mph - N/A   Clear
8:20 PM 84.2 °F 83.0 °F 55.4 °F 37% 29.90 in 10.0 mi West 21.9 mph - N/A   Clear
8:40 PM 82.4 °F 81.7 °F 55.4 °F 39% 29.90 in 10.0 mi West 20.7 mph 31.1 mph N/A   Clear
9:00 PM 82.4 °F 81.7 °F 55.4 °F 39% 29.90 in 10.0 mi West 15.0 mph 23.0 mph N/A   Clear
9:20 PM 82.4 °F 81.7 °F 55.4 °F 39% 29.91 in 10.0 mi West 17.3 mph - N/A   Clear
9:40 PM 82.4 °F 81.7 °F 55.4 °F 39% 29.92 in 10.0 mi West 11.5 mph - N/A   Clear
10:00 PM 80.6 °F 80.5 °F 55.4 °F 42% 29.92 in 10.0 mi West 13.8 mph - N/A   Clear
10:20 PM 80.6 °F 80.5 °F 55.4 °F 42% 29.92 in 10.0 mi West 15.0 mph - N/A   Clear
10:40 PM 80.6 °F 80.5 °F 55.4 °F 42% 29.92 in 10.0 mi WNW 13.8 mph 21.9 mph N/A   Clear
11:00 PM 80.6 °F 80.3 °F 53.6 °F 39% 29.91 in 10.0 mi WNW 21.9 mph - N/A   Clear
11:20 PM 80.6 °F 80.5 °F 55.4 °F 42% 29.91 in 10.0 mi WNW 20.7 mph - N/A   Clear
11:40 PM 80.6 °F 80.5 °F 55.4 °F 42% 29.91 in 10.0 mi WNW 18.4 mph 25.3 mph N/A   Clear